sat.trackr.live / text

‹ back to catalog

PVSAT

NORAD 52894 · 2022-065A

PAYLOAD ACTIVE UNKNOWN

§ Identity

Operator
Country
SKOR
Launch date
2022-06-21
Launch site
NSC
Launch vehicle
Mass (kg)
RCS (m²)

External: N2YO · Heavens-Above · Gunter

§ Orbital elements

Epoch: 2026-05-24T22:56:16.082016Z

Period
98.66 min
Inclination
98.2254°
Eccentricity
0.0010634
Mean motion
14.59527411 rev/d
Perigee alt
687.2 km
Apogee alt
702.2 km
Semi-major
7,072.8 km
B*
5.5947e-5
RAAN
284.5536°
Arg perigee
90.8666°
Mean anomaly
269.3752°
Rev number
20,896

§ Raw data

PVSAT1 52894U 22065A   26144.95574169  .00000219  00000+0  55947-4 0  99912 52894  98.2254 284.5536 0010634  90.8666 269.3752 14.59527411208960

JSON: /api/v1/satellites/52894 · /tle

For live sub-satellite position, see the globe view (requires WebGL).

§ Visibility from observer

Set your observer location to see the next 7 days of passes ≥ 10°. The values pass through the URL so the page stays shareable.

No JS? Fill the form by hand. The geolocation button needs JavaScript.